Weather Roundup
Issued by NWS

Home | Current Version | Previous Version | Graphics & Text | Print | Product List | Glossary Off
Versions: 1 2 3 4 5 6 7 8 9 10 11 12 13 14 15 16 17 18 19 20 21 22 23 24 25 26 27 28 29 30 31 32 33 34 35 36 37 38 39 40 41 42 43 44 45 46 47 48 49 50

000
NZUS93 KARX 041210
HRRWXR

CURRENT HOURLY OBSERVATIONS ACROSS
MUCH OF THE UPPER MISSISSIPPI VALLEY
NATIONAL WEATHER SERVICE LA CROSSE WI
700 AM CDT MON MAY 04 2015


...SOUTHEAST MINNESOTA...


CITY           SKY/WX    TMP DP  RH WIND       PRES   REMARKS
ROCHESTER      MOCLDY    52  42  69 N12       30.09R
ROCHESTER/MAYO FAIR      53  42  65 N7        30.08R
WINONA         PTSUNNY   55  46  71 CALM      30.07R
AUSTIN         MOCLDY    52  45  76 NE8       30.06R
ALBERT LEA     FAIR      54  43  66 NE10      30.07R
DODGE CENTER   MOCLDY    52  43  71 N12       30.08R
PRESTON        MOCLDY    51  48  89 N8        30.06R
OWATONNA       MOCLDY    52  39  62 N8        30.09R
FARIBAULT      PTCLDY    50  39  66 N5        30.11R
$$

...ELSEWHERE IN MINNESOTA...


CITY           SKY/WX    TMP DP  RH WIND       PRES   REMARKS
MINNEAPOLIS    PTCLDY    52  36  54 N6        30.12R
INTNL FALLS    SUNNY     38  35  89 NW6       30.13R WCI  33
DULUTH         SUNNY     45  35  68 NW8       30.09R
RED WING       MOCLDY    54  36  50 N6        30.09R
REDWOOD FALLS  CLEAR     48  31  51 CALM      30.12R
MANKATO          N/A    N/A N/A N/A MISG        N/A
WORTHINGTON    PTCLDY    46  27  46 N12       30.11R
FAIRMONT       PTCLDY    50  30  46 N10       30.08R
$$

...SOUTHWEST WISCONSIN...


CITY           SKY/WX    TMP DP  RH WIND       PRES   REMARKS
LA CROSSE      PTSUNNY   58  53  84 NW10      30.05R
PRAIRIE DU CHI CLOUDY    56  55  97 CALM      30.01R
BOSCOBEL       CLOUDY    57  56  96 E3        30.01S FOG
LONE ROCK      CLOUDY    59  56  89 N6        30.01R
PLATTEVILLE    CLOUDY    57  56  98 N6        30.02R
FORT MC COY    PTSUNNY   56  56  97 NW6       30.05R
CAMP DOUGLAS   CLOUDY    55  55 100 NW5       30.02R
VIROQUA        CLOUDY    57  57 100 N6        30.04R
WIS DELLS      NOT AVBL
$$

...ELSEWHERE IN WISCONSIN...


CITY           SKY/WX    TMP DP  RH WIND       PRES   REMARKS
MILWAUKEE      CLOUDY    60  55  83 NW9       29.97R
MADISON        CLOUDY    58  55  90 NW5       30.01R
GREEN BAY      PTSUNNY   60  57  89 NW7       29.98R
EAU CLAIRE     MOSUNNY   53  39  59 CALM      30.07R
BLACK RVR FLS  FAIR      54  51  90 N6        30.05R
MEDFORD        SUNNY     48  41  75 N8        30.05R
WAUSAU         SUNNY     53  45  74 N7        30.01R
WIS RAPIDS     MOSUNNY   54  52  93 N5        30.03R
MARSHFIELD     SUNNY     53  46  77 N9        30.03R
RICE LAKE      SUNNY     49  35  59 CALM      30.12R
$$

...NORTHEAST IOWA...


CITY           SKY/WX    TMP DP  RH WIND       PRES   REMARKS
DECORAH        CLOUDY    57  57 100 N9G15     30.02R
MASON CITY     MOCLDY    53  48  83 N10       30.07R
CHARLES CITY   MOCLDY    55  55 100 N8        30.04R
OELWEIN        CLOUDY    57  57 100 NW3       30.04R FOG
$$

...ELSEWHERE IN IOWA...


CITY           SKY/WX    TMP DP  RH WIND       PRES   REMARKS
DES MOINES     CLOUDY    62  55  77 N12       29.98R
IOWA CITY      CLOUDY    59  58  96 S12       29.99F
FORT DODGE     CLOUDY    55  46  71 N8        30.05S
$$

...NORTHERN ILLINOIS...


CITY           SKY/WX    TMP DP  RH WIND       PRES   REMARKS
CHICAGO-OHARE  CLOUDY    59  55  87 S3        29.98R
CHICAGO-MIDWAY CLOUDY    65  55  70 SW6       29.98R
MOLINE         CLOUDY    61  57  87 S8        29.99F
ROCKFORD       CLOUDY    60  55  83 W5        30.00R
PEORIA         RAIN      62  58  86 SE6       30.06R FOG
$$

NOTE: "FAIR" INDICATES FEW OR NO CLOUDS BELOW 12,000 FEET WITH NO
SIGNIFICANT WEATHER AND/OR OBSTRUCTIONS TO VISIBILITY. WIND
SPEEDS ARE IN MILES-PER-HOUR.



USA.gov is the U.S. government's official web portal to all federal, state and local government web resources and services.